Weather History for Orange, MA

Change the Weather History Date:

Monday, November 29, 2010

  Actual Average Record
Temperature  
Mean Temperature 32 °F -  
Max Temperature 43 °F 41 °F 64 °F (2011)
Min Temperature 21 °F 22 °F 8 °F (1996)
Degree Days  
Heating Degree Days 33    
Moisture  
Dew Point 25 °F    
Average Humidity 82    
Maximum Humidity 96    
Minimum Humidity 51    
Precipitation  
Precipitation 0.00 in - - ()
Sea Level Pressure  
Sea Level Pressure 30.52 in    
Wind  
Wind Speed 0 mph (East)    
Max Wind Speed 5 mph    
Max Gust Speed -    
Visibility 10 miles    
Events      
Averages and records for this station are not official NWS values.
T = Trace of Precipitation, MM = Missing Value Source: NWS Daily Summary

Daily Weather History Graph

Daily Weather History Graph

Search for Another Location

Airport:

Trip Planner

Search our weather history database for the weather conditions in past years. The results will help you decide how hot, cold, wet, or windy it might be!

Date:

Astronomy

Nov. 29, 2010 Rise Set
Actual Time 6:57 AM EST 4:17 PM EST
Civil Twilight 6:25 AM EST 4:48 PM EST
Nautical Twilight 5:50 AM EST 5:23 PM EST
Astronomical Twilight 5:16 AM EST 5:57 PM EST
Moon No Moon Rise 12:24 PM EST (11/29)
Length of Visible Light 10h 23m
Length of Day
9h 20m
Last Quarter, 40% of the Moon is Illuminated
Nov 29
Last Quarter
Dec 5
New
Dec 13
First Quarter
Dec 21
Full
Dec 27
Last Quarter

Hourly Weather History & Observations

Time (EST) Temp. Windchill Dew Point Humidity Pressure Visibility Wind Dir Wind Speed Gust Speed Precip Events Conditions
12:52 AM 26.1 °F - 25.0 °F 96% 30.44 in 10.0 mi Calm Calm - N/A   Partly Cloudy
1:52 AM 25.0 °F - 24.1 °F 96% 30.46 in 10.0 mi Calm Calm - N/A   Clear
2:52 AM 24.1 °F - 23.0 °F 96% 30.47 in 9.0 mi Calm Calm - N/A   Partly Cloudy
3:52 AM 23.0 °F - 21.9 °F 96% 30.49 in 7.0 mi Calm Calm - N/A   Clear
4:52 AM 24.1 °F - 21.9 °F 91% 30.51 in 9.0 mi Calm Calm - N/A   Clear
6:52 AM 21.0 °F - 19.9 °F 96% 30.54 in 8.0 mi Calm Calm - N/A   Clear
8:52 AM 27.0 °F - 25.0 °F 92% 30.57 in 10.0 mi Calm Calm - N/A   Clear
9:52 AM 34.0 °F - 27.0 °F 75% 30.58 in 10.0 mi Calm Calm - N/A   Clear
10:52 AM 39.0 °F - 27.0 °F 62% 30.56 in 10.0 mi Calm Calm - N/A   Clear
11:52 AM 41.0 °F - 26.1 °F 55% 30.53 in 10.0 mi Calm Calm - N/A   Clear
12:52 PM 43.0 °F 41.3 °F 26.1 °F 51% 30.51 in 10.0 mi East 3.5 mph - N/A   Clear
1:52 PM 43.0 °F 40.3 °F 27.0 °F 53% 30.51 in 10.0 mi Variable 4.6 mph - N/A   Clear
3:52 PM 41.0 °F - 26.1 °F 55% 30.52 in 10.0 mi Calm Calm - N/A   Clear
4:52 PM 34.0 °F - 27.0 °F 75% 30.54 in 10.0 mi Calm Calm - N/A   Clear
5:52 PM 30.0 °F - 26.1 °F 85% 30.54 in 10.0 mi Calm Calm - N/A   Clear
6:52 PM 28.9 °F - 26.1 °F 89% 30.54 in 10.0 mi Calm Calm - N/A   Clear
7:52 PM 28.0 °F - 26.1 °F 92% 30.53 in 10.0 mi Calm Calm - N/A   Clear
8:52 PM 27.0 °F - 25.0 °F 92% 30.53 in 10.0 mi Calm Calm - N/A   Clear
9:52 PM 26.1 °F - 25.0 °F 96% 30.53 in 10.0 mi Calm Calm - N/A   Clear
10:52 PM 26.1 °F - 24.1 °F 92% 30.53 in 10.0 mi Calm Calm - N/A   Clear
11:52 PM 24.1 °F - 23.0 °F 96% 30.52 in 8.0 mi Calm Calm - N/A   Clear